Saturday, October 25, 2014
19:47 UTC
  |  Log In   |  Register Free
Airport Search:

Heart Of Georgia Regional Airport
(KEZM)

FAA data valid effective September 18, 2014 - November 13, 2014 (unless otherwise noted).

 
 
 
 
 
 
 
 
 
 
 
 
 
 

Current Aviation Weather for Heart Of Georgia Regional Airport (KEZM)

The most recent METAR observation for KEZM was updated at: 1911
METAR Summary (Translated METAR)
KEZM
251855Z AUTO 24003KT 10SM CLR 25/10 A3002 RMK AO2 T02520100
KDBN
251855Z AUTO 33003KT 10SM CLR 25/06 A3001 RMK AO2
(22.1 nm NE from KEZM)
KAZE
251855Z AUTO 10003KT 10SM CLR 25/10 A2997 RMK AO2 T02530098
(31.6 nm SE from KEZM)
TAF
No TAF information found within 50 nm of KEZM
  Airport Weather Conditions for KEZM

 Current Weather at EZM
77° F
Fair
Southwest winds at 3.5 mph
EZM NOAA Radar

Pressure: 30.02 in
Humidity: 38%
Wind: Southwest at 3.5 MPH (3 KT)
Dew Point: 50.0°F
Visibility: 10.00 mi


Airport Weather Forecast for KEZM

Translated METAR and TAF for KEZM
Translated METAR for KEZM (1942 UTC 25 October 2014)
found at http://aviationweather.gov/adds/metars/
 
METAR text: KEZM 251935Z AUTO 00000KT 10SM CLR 26/09 A3000 RMK AO2 T02570085
Conditions at: KEZM (EASTMAN , GA, US) observed 1935 UTC 25 October 2014
Temperature: 25.7°C (78°F)
Dewpoint: 8.5°C (47°F) [RH = 34%]
Pressure (altimeter): 30.00 inches Hg (1016.0 mb)
Winds: calm
Visibility: 10 or more miles (16+ km)
Ceiling: at least 12,000 feet AGL
Clouds: sky clear below 12,000 feet AGL
Weather: automated observation with no human augmentation;
there may or may not be significant weather present at this time
Translated TAF for KEZM

There is no translated TAF available for this airport

Find All Airport Services Find A Hotel Find A Rental Car Find A Golf Course Find A Restaurant $100 Hamburger



FBO's on the Field
FBO Company Facility Photos Services Transportation Aviation Fuel Prices: Prices include tax
Catering Weather Repair Courtesy Rental Type 100LL JetA JetA+ MOGAS 8087
 
Heart of Georgia Regional Airport

This FBO has not yet been rated
FS: Phillips 66
Last Updated: Oct-08
Login to update fuel prices
SS:
Contact Heart of Georgia Regional AirportMore FBO Information
 
Add another FBO Facility Photos Catering Weather Repair Courtesy Rental Type 100LL JetA JetA+ MOGAS 8087
Services Transportation Aviation Fuel Prices: Prices include tax


model-print
model-print
model-print
model-print